Location: Peebles
(55.6412°N, 3.1714°W)
Time: 20:01:06
(UTC+01:00)

Transit 2A - Visible Passes

Search period start: 02 October 2022 00:00
Search period end: 12 October 2022 00:00
Orbit: 601 x 956 km, 66.7° (Epoch: 02 October)

Date Brightness Start Highest point End Pass type
(mag) Time Alt. Az. Time Alt. Az. Time Alt. Az.
02 Oct 8.2 02:19:48 18° NNE 02:19:48 18° NNE 02:21:03 10° NE visible
02 Oct 7.4 04:00:16 21° NNW 04:00:52 22° NNW 04:04:22 10° NE visible
02 Oct 7.6 05:41:52 10° NW 05:45:24 23° NNE 05:49:05 10° ENE visible
03 Oct 8.6 01:46:19 12° NE 01:46:19 12° NE 01:46:41 10° NE visible
03 Oct 7.5 03:26:47 23° N 03:26:47 23° N 03:29:53 10° NE visible
03 Oct 7.7 05:07:21 10° NW 05:10:45 21° N 05:14:17 10° ENE visible
04 Oct 7.9 02:53:19 21° NNE 02:53:19 21° NNE 02:55:25 10° NE visible
04 Oct 7.8 04:33:47 14° NW 04:36:06 20° N 04:39:31 10° NE visible
04 Oct 7.2 06:16:19 10° NW 06:20:25 34° NNE 06:24:47 10° E visible
05 Oct 8.3 02:19:52 16° NNE 02:19:52 16° NNE 02:21:01 10° NE visible
05 Oct 7.7 04:00:19 18° NNW 04:01:25 20° N 04:04:49 10° NE visible
05 Oct 7.4 05:41:55 10° NW 05:45:51 29° NNE 05:50:00 10° E visible
06 Oct 8.7 01:46:24 11° NE 01:46:24 11° NE 01:46:38 10° NE visible
06 Oct 7.7 03:26:52 20° N 03:26:52 20° N 03:30:11 10° NE visible
06 Oct 7.6 05:07:31 10° NW 05:11:15 26° NNE 05:15:12 10° ENE visible
07 Oct 8.1 02:53:27 19° NNE 02:53:27 19° NNE 02:55:37 10° NE visible
07 Oct 7.7 04:33:56 14° NNW 04:36:38 23° NNE 04:40:23 10° ENE visible
07 Oct 6.5 06:16:12 10° NW 06:20:39 53° NE 06:25:28 10° ESE visible
08 Oct 8.4 02:20:03 15° NNE 02:20:03 15° NNE 02:21:06 10° NE visible
08 Oct 7.7 04:00:32 18° NNW 04:01:59 21° N 04:05:34 10° ENE visible
08 Oct 6.8 05:41:50 10° NW 05:46:09 42° NE 05:50:49 10° ESE visible
09 Oct 7.8 03:27:10 20° N 03:27:19 21° N 03:30:49 10° NE visible
09 Oct 7.1 05:07:38 11° NW 05:11:38 35° NNE 05:16:05 10° E visible
09 Oct 5.8 06:50:29 10° NW 06:55:04 68° SW 07:00:05 10° SSE visible
10 Oct 8.2 02:53:51 18° NNE 02:53:51 18° NNE 02:56:05 10° NE visible
10 Oct 7.4 04:34:20 17° NNW 04:37:04 30° NNE 04:41:18 10° E visible
10 Oct 5.7 06:16:05 10° NW 06:20:42 89° SW 06:25:44 10° SE visible
11 Oct 8.6 02:20:36 13° NE 02:20:36 13° NE 02:21:26 10° NE visible
11 Oct 7.5 04:01:05 22° N 04:02:28 26° NNE 04:06:30 10° ENE visible
11 Oct 6.0 05:41:43 10° NW 05:46:18 71° NE 05:51:18 10° SE visible
